Tracking 20715 objects as of 27-May-2020
HD Live streaming from Space Station
objects crossing your sky now

IRIDIUM 33 DEB

Track IRIDIUM 33 DEB now!
10-day predictions


NORAD ID: 34535
Int'l Code: 1997-051JC
Perigee: 625.0 km
Apogee: 648.2 km
Inclination: 86.3 °
Period: 97.3 minutes
Semi major axis: 7007 km
RCS: 0.032 m2 (small)
Launch date: September 14, 1997
Source: United States (US)
Launch site: TYURATAM MISSILE AND SPACE COMPLEX (TTMTR)

Note: This is SATELLITE DEBRIS
aabbcc
Your satellite tracking list
Your tracking list is empty




NASA's NSSDC Master Catalog

Two Line Element Set (TLE):
1 34535U 97051JC  20147.56794803 +.00003535 +00000-0 +46363-3 0  9999
2 34535 086.3300 104.9105 0016572 221.5931 138.4031 14.79951431599003
Source of the keplerian elements: AFSPC